Login

Heerenveen

Pos Pair Lane Name Born Nation Time
1 6 - Tao Yang 1997 China 1:19.55
1 6 - Ziwen Lian 1998 China 1:19.55
1 6 - Zhongyan Ning 1999 China 1:19.55
2 3 - Merijn Scheperkamp 2000 Netherlands 1:19.82
2 3 - Hein Otterspeer 1988 Netherlands 1:19.82
2 3 - Joep Wennemars 2002 Netherlands 1:19.82
3 2 - Austin Kleba 1999 USA 1:19.90
3 2 - Cooper McLeod 2001 USA 1:19.90
3 2 - Jordan Stolz 2004 USA 1:19.90
4 6 - Henrik Fagerli Rukke 1996 Norway 1:19.91
4 6 - HÃ¥vard Holmefjord Lorentzen 1992 Norway 1:19.91
4 6 - Odin By Farstad 1997 Norway 1:19.91
5 3 - Niklas Kurzmann 2000 Germany 1:20.27
5 3 - Hendrik Dombek 1997 Germany 1:20.27
5 3 - Moritz Klein 2000 Germany 1:20.27
6 5 - David Bosa 1992 Italy 1:20.42
6 5 - Alessio Trentini 1994 Italy 1:20.42
7 4 - Christopher Fiola 1996 Canada 1:20.58
7 4 - Laurent Dubreuil 1992 Canada 1:20.58
7 4 - Connor Howe 2000 Canada 1:20.58
8 5 - Marek Kania 1998 Poland 1:20.74
8 5 - Piotr Michalski 1994 Poland 1:20.74
8 5 - Damian Żurek 1999 Poland 1:20.74
9 2 - Tae-Yun Kim 1994 South Korea 1:21.84
9 2 - Jun-Ho Kim 1995 South Korea 1:21.84
9 2 - Seonghyeon Park 1999 South Korea 1:21.84
10 4 - Yevgeniy Koshkin 2002 Kazakhstan 1:22.88
10 4 - Artur Galiyev 2000 Kazakhstan 1:22.88
10 4 - Demyan Gavrilov 1997 Kazakhstan 1:22.88
11 1 - Alexander Farthofer 2005 Austria 1:24.55
11 1 - Ignaz Gschwentner 2002 Austria 1:24.55
11 1 - Gabriel Odor 2000 Austria 1:24.55

Info

What World Cup A-group
Discipline Team Sprint
Host Heerenveen
Nation Netherlands
Date Sunday 20.Nov 2022
Calendar 2022/2023
Air Temp 15.8 C
Ice Temp -10.6 C
Humidity 36.8 %